Location: ??????
(42.0089°N, 44.3281°E)
Time: 12:02:20
(UTC+00:00)

Cosmos 220 Rocket - Pass Details

Date: 02 June 2022
Orbit: 572 x 614 km, 74.0° (Epoch: 03 July)

Event Time Altitude Azimuth Distance (km) Brightness Sun altitude
Exits shadow 18:46:27 23° 88° (E) 1,242 5.3 -18.6°
Drops below altitude 10° 18:49:15 10° 47° (NE) 1,884 6.7 -18.9°
Sets 18:51:47 0° 33° (NNE) 2,790 7.8 -19.2°
